Weather History for KSPA - October, 2012

Change the Weather History Date:

Saturday, October 27, 2012

  Actual Average (KGSP) Record (KGSP)
Temperature  
Mean Temperature 66 °F 58 °F  
Max Temperature 73 °F 70 °F 86 °F (1891)
Min Temperature 60 °F 47 °F 30 °F (1962)
Degree Days  
Heating Degree Days 0 7  
Month to date heating degree days 120  
Since 1 July heating degree days 137  
Cooling Degree Days 2 1  
Month to date cooling degree days 46  
Year to date cooling degree days 1708  
Growing Degree Days 16 (Base 50)    
Moisture  
Dew Point 58 °F    
Average Humidity 74    
Maximum Humidity 88    
Minimum Humidity 57    
Precipitation  
Precipitation 0.00 in 0.11 in 1.61 in (2006)
Month to date precipitation 3.03  
Year to date precipitation 38.97  
Snow  
Snow 0.00 in 0.00 in 0.00 in ()
Month to date snowfall 0.0  
Since 1 July snowfall 0.0  
Since 1 September snowfall 0.0  
Snow Depth -    
Sea Level Pressure  
Sea Level Pressure 29.82 in    
Wind  
Wind Speed 9 mph (NNE)    
Max Wind Speed 15 mph    
Max Gust Speed 23 mph    
Visibility 10 miles    
Events      
T = Trace of Precipitation, MM = Missing Value Source: NWS Daily Summary

Daily Weather History Graph

Daily Weather History Graph

Search for Another Location

Airport or City:

Trip Planner

Search our weather history database for the weather conditions in past years. The results will help you decide how hot, cold, wet, or windy it might be!

Date:

Astronomy

Oct. 27, 2012 Rise Set
Actual Time 7:44 AM EDT 6:38 PM EDT
Civil Twilight 7:18 AM EDT 7:04 PM EDT
Nautical Twilight 6:48 AM EDT 7:33 PM EDT
Astronomical Twilight 6:19 AM EDT 8:03 PM EDT
Moon 5:21 PM EDT (10/27) 5:41 AM EDT (10/27)
Length of Visible Light 11h 45m
Length of Day
10h 53m
Waxing Gibbous, 96% of the Moon is Illuminated
Oct 27
Waxing Gibbous
Oct 29
Full
Nov 6
Last Quarter
Nov 13
New
Nov 20
First Quarter

Hourly Weather History & Observations

Time (EDT) Temp. Dew Point Humidity Pressure Visibility Wind Dir Wind Speed Gust Speed Precip Events Conditions
12:15 AM 62.6 °F 59.0 °F 88% 29.96 in 10.0 mi NNE 8.1 mph - N/A   Clear
12:35 AM 62.6 °F 59.0 °F 88% 29.95 in 10.0 mi North 6.9 mph - N/A   Clear
1:15 AM 62.6 °F 59.0 °F 88% 29.94 in 10.0 mi North 9.2 mph - N/A   Clear
1:35 AM 62.6 °F 59.0 °F 88% 29.92 in 10.0 mi NNE 8.1 mph - N/A   Clear
1:55 AM 62.6 °F 59.0 °F 88% 29.91 in 10.0 mi North 9.2 mph - N/A   Clear
2:15 AM 62.6 °F 59.0 °F 88% 29.91 in 10.0 mi North 8.1 mph - N/A   Clear
2:35 AM 62.6 °F 59.0 °F 88% 29.90 in 10.0 mi North 8.1 mph - N/A   Clear
2:55 AM 62.6 °F 59.0 °F 88% 29.89 in 10.0 mi North 8.1 mph - N/A   Clear
3:15 AM 62.6 °F 59.0 °F 88% 29.88 in 10.0 mi North 10.4 mph - N/A   Clear
3:55 AM 62.6 °F 59.0 °F 88% 29.87 in 10.0 mi North 8.1 mph - N/A   Clear
4:15 AM 62.6 °F 59.0 °F 88% 29.86 in 10.0 mi NNE 8.1 mph - N/A   Mostly Cloudy
4:35 AM 62.6 °F 59.0 °F 88% 29.86 in 10.0 mi North 8.1 mph - N/A   Scattered Clouds
4:55 AM 62.6 °F 59.0 °F 88% 29.85 in 10.0 mi North 10.4 mph - N/A   Mostly Cloudy
5:15 AM 62.6 °F 59.0 °F 88% 29.85 in 10.0 mi North 9.2 mph - N/A   Overcast
5:35 AM 62.6 °F 59.0 °F 88% 29.85 in 10.0 mi North 8.1 mph - N/A   Mostly Cloudy
5:55 AM 62.6 °F 59.0 °F 88% 29.85 in 10.0 mi North 5.8 mph - N/A   Scattered Clouds
6:15 AM 62.6 °F 59.0 °F 88% 29.85 in 10.0 mi NNE 8.1 mph - N/A   Mostly Cloudy
6:35 AM 62.6 °F 59.0 °F 88% 29.85 in 10.0 mi North 8.1 mph - N/A   Overcast
6:55 AM 62.6 °F 59.0 °F 88% 29.85 in 10.0 mi North 6.9 mph - N/A   Overcast
7:15 AM 62.6 °F 59.0 °F 88% 29.85 in 10.0 mi North 8.1 mph - N/A   Overcast
7:35 AM 64.4 °F 59.0 °F 83% 29.86 in 10.0 mi North 8.1 mph - N/A   Overcast
7:55 AM 64.4 °F 59.0 °F 83% 29.86 in 10.0 mi NNE 6.9 mph - N/A   Overcast
8:15 AM 64.4 °F 59.0 °F 83% 29.87 in 10.0 mi NNE 6.9 mph - N/A   Mostly Cloudy
8:35 AM 64.4 °F 59.0 °F 83% 29.88 in 10.0 mi NNE 6.9 mph - N/A   Scattered Clouds
8:55 AM 64.4 °F 59.0 °F 83% 29.88 in 10.0 mi NNE 5.8 mph - N/A   Scattered Clouds
9:15 AM 64.4 °F 59.0 °F 83% 29.88 in 10.0 mi NE 6.9 mph - N/A   Scattered Clouds
9:35 AM 64.4 °F 59.0 °F 83% 29.88 in 10.0 mi NE 8.1 mph - N/A   Scattered Clouds
9:55 AM 64.4 °F 60.8 °F 88% 29.87 in 10.0 mi NE 8.1 mph - N/A   Mostly Cloudy
10:35 AM 66.2 °F 60.8 °F 83% 29.87 in 10.0 mi NE 8.1 mph - N/A   Overcast
11:15 AM 68.0 °F 60.8 °F 78% 29.86 in 10.0 mi NNE 12.7 mph - N/A   Mostly Cloudy
11:35 AM 68.0 °F 60.8 °F 78% 29.86 in 10.0 mi NNE 12.7 mph 16.1 mph N/A   Overcast
11:55 AM 69.8 °F 59.0 °F 68% 29.85 in 10.0 mi NE 13.8 mph - N/A   Overcast
12:15 PM 69.8 °F 59.0 °F 68% 29.84 in 10.0 mi NNE 15.0 mph 23.0 mph N/A   Mostly Cloudy
12:35 PM 69.8 °F 59.0 °F 68% 29.83 in 10.0 mi NNE 11.5 mph 19.6 mph N/A   Scattered Clouds
12:55 PM 69.8 °F 59.0 °F 68% 29.82 in 10.0 mi North 13.8 mph - N/A   Scattered Clouds
1:15 PM 71.6 °F 59.0 °F 64% 29.80 in 10.0 mi NNE 12.7 mph - N/A   Scattered Clouds
1:35 PM 73.4 °F 59.0 °F 61% 29.79 in 10.0 mi North 11.5 mph 17.3 mph N/A   Clear
1:55 PM 73.4 °F 59.0 °F 61% 29.79 in 10.0 mi NNE 13.8 mph 19.6 mph N/A   Clear
2:15 PM 73.4 °F 59.0 °F 61% 29.78 in 10.0 mi NE 11.5 mph 19.6 mph N/A   Scattered Clouds
2:35 PM 73.4 °F 59.0 °F 61% 29.78 in 10.0 mi ENE 10.4 mph - N/A   Mostly Cloudy
2:55 PM 73.4 °F 57.2 °F 57% 29.77 in 10.0 mi NE 11.5 mph 17.3 mph N/A   Scattered Clouds
3:15 PM 73.4 °F 57.2 °F 57% 29.76 in 10.0 mi NE 13.8 mph 18.4 mph N/A   Scattered Clouds
3:35 PM 73.4 °F 57.2 °F 57% 29.75 in 10.0 mi NNE 11.5 mph 17.3 mph N/A   Scattered Clouds
3:55 PM 73.4 °F 59.0 °F 61% 29.74 in 10.0 mi NNE 10.4 mph - N/A   Clear
4:15 PM 73.4 °F 57.2 °F 57% 29.74 in 5.0 mi NNE 9.2 mph - N/A   Haze
4:35 PM 73.4 °F 57.2 °F 57% 29.73 in 5.0 mi NNE 10.4 mph - N/A   Haze
4:55 PM 73.4 °F 57.2 °F 57% 29.73 in 7.0 mi NE 5.8 mph - N/A   Clear
5:15 PM 73.4 °F 57.2 °F 57% 29.73 in 10.0 mi NE 8.1 mph - N/A   Clear
5:35 PM 71.6 °F 55.4 °F 57% 29.72 in 10.0 mi NE 8.1 mph - N/A   Clear
5:55 PM 71.6 °F 57.2 °F 60% 29.72 in 10.0 mi NE 5.8 mph - N/A   Clear
6:15 PM 69.8 °F 57.2 °F 64% 29.73 in 10.0 mi NNE 5.8 mph - N/A   Clear
6:35 PM 69.8 °F 55.4 °F 60% 29.73 in 7.0 mi NNE 6.9 mph - N/A   Clear
6:55 PM 69.8 °F 55.4 °F 60% 29.73 in 10.0 mi NNE 4.6 mph - N/A   Clear
7:15 PM 69.8 °F 55.4 °F 60% 29.74 in 10.0 mi NE 6.9 mph - N/A   Clear
7:35 PM 68.0 °F 55.4 °F 64% 29.75 in 10.0 mi NNE 9.2 mph - N/A   Clear
7:55 PM 68.0 °F 55.4 °F 64% 29.75 in 10.0 mi North 6.9 mph - N/A   Clear
8:15 PM 68.0 °F 55.4 °F 64% 29.75 in 10.0 mi North 5.8 mph - N/A   Clear
8:35 PM 66.2 °F 55.4 °F 68% 29.75 in 10.0 mi North 6.9 mph - N/A   Clear
8:55 PM 64.4 °F 55.4 °F 73% 29.76 in 10.0 mi NNW 6.9 mph - N/A   Clear
9:15 PM 64.4 °F 55.4 °F 73% 29.76 in 10.0 mi North 5.8 mph - N/A   Clear
9:35 PM 64.4 °F 55.4 °F 73% 29.76 in 10.0 mi NNW 6.9 mph - N/A   Clear
9:55 PM 62.6 °F 53.6 °F 72% 29.77 in 10.0 mi NNW 6.9 mph - N/A   Clear
10:15 PM 62.6 °F 53.6 °F 72% 29.77 in 10.0 mi NNW 8.1 mph - N/A   Clear
10:35 PM 62.6 °F 53.6 °F 72% 29.77 in 10.0 mi NNW 8.1 mph - N/A   Clear
10:55 PM 60.8 °F 53.6 °F 77% 29.78 in 10.0 mi NNW 8.1 mph - N/A   Clear
11:15 PM 60.8 °F 53.6 °F 77% 29.77 in 10.0 mi NNW 8.1 mph - N/A   Clear
11:35 PM 60.8 °F 51.8 °F 72% 29.77 in 10.0 mi NNW 6.9 mph - N/A   Clear
11:55 PM 60.8 °F 51.8 °F 72% 29.78 in 10.0 mi NNW 6.9 mph - N/A   Clear